Time,TemperatureF,DewpointF,PressureIn,WindDirection,WindDirectionDegrees,WindSpeedMPH,WindSpeedGustMPH,Humidity,HourlyPrecipIn,Conditions,Clouds,dailyrainin,SoftwareType,DateUTC
2013-01-03 00:23:00,20.0,-99.9,30.20,SSE,159,-999.0,-999.0,-999,-99.99,,,-99.99,,2013-01-03 05:23:00,
2013-01-03 00:33:00,20.0,-99.9,30.20,SSE,159,-999.0,-999.0,-999,-99.99,,,-99.99,,2013-01-03 05:33:00,
2013-01-03 00:42:00,20.0,-99.9,30.20,SSE,159,-999.0,-999.0,-999,-99.99,,,-99.99,,2013-01-03 05:42:00,
2013-01-03 00:53:00,20.0,-99.9,30.19,SSE,159,-999.0,-999.0,-999,-99.99,,,-99.99,,2013-01-03 05:53:00,
2013-01-03 01:22:00,20.0,-99.9,30.19,SSE,159,-999.0,-999.0,-999,-99.99,,,-99.99,,2013-01-03 06:22:00,
2013-01-03 01:33:00,20.0,-99.9,30.19,SSE,159,-999.0,-999.0,-999,-99.99,,,-99.99,,2013-01-03 06:33:00,
2013-01-03 01:43:00,20.0,-99.9,30.19,SSE,159,-999.0,-999.0,-999,-99.99,,,-99.99,,2013-01-03 06:43:00,
2013-01-03 01:53:00,20.0,-99.9,30.19,SSE,159,-999.0,-999.0,-999,-99.99,,,-99.99,,2013-01-03 06:53:00,
2013-01-03 02:22:00,20.0,-99.9,30.19,SSE,159,-999.0,-999.0,-999,-99.99,,,-99.99,,2013-01-03 07:22:00,
2013-01-03 02:33:00,20.0,-99.9,30.19,SSE,159,-999.0,-999.0,-999,-99.99,,,-99.99,,2013-01-03 07:33:00,
2013-01-03 02:43:00,20.0,-99.9,30.19,SSE,159,-999.0,-999.0,-999,-99.99,,,-99.99,,2013-01-03 07:43:00,
2013-01-03 02:53:00,20.0,-99.9,30.21,SSE,159,-999.0,-999.0,-999,-99.99,,,-99.99,,2013-01-03 07:53:00,
2013-01-03 03:33:00,20.0,-99.9,30.21,SSE,159,-999.0,-999.0,-999,-99.99,,,-99.99,,2013-01-03 08:33:00,
2013-01-03 03:43:00,20.0,-99.9,30.21,SSE,159,-999.0,-999.0,-999,-99.99,,,-99.99,,2013-01-03 08:43:00,
2013-01-03 03:53:00,19.0,-99.9,30.19,SSE,159,-999.0,-999.0,-999,-99.99,,,-99.99,,2013-01-03 08:53:00,
2013-01-03 04:34:00,19.0,-99.9,30.19,SSE,159,-999.0,-999.0,-999,-99.99,,,-99.99,,2013-01-03 09:34:00,
2013-01-03 04:43:00,19.0,-99.9,30.19,SSE,159,-999.0,-999.0,-999,-99.99,,,-99.99,,2013-01-03 09:43:00,
2013-01-03 04:53:00,18.0,-99.9,30.19,SSE,159,-999.0,-999.0,-999,-99.99,,,-99.99,,2013-01-03 09:53:00,
2013-01-03 05:23:00,18.0,-99.9,30.19,SSE,159,-999.0,-999.0,-999,-99.99,,,-99.99,,2013-01-03 10:23:00,
2013-01-03 05:33:00,18.0,-99.9,30.19,SSE,159,-999.0,-999.0,-999,-99.99,,,-99.99,,2013-01-03 10:33:00,
2013-01-03 05:43:00,18.0,-99.9,30.19,SSE,159,-999.0,-999.0,-999,-99.99,,,-99.99,,2013-01-03 10:43:00,
2013-01-03 05:53:00,17.0,-99.9,30.19,SSE,159,-999.0,-999.0,-999,-99.99,,,-99.99,,2013-01-03 10:53:00,
2013-01-03 06:23:00,17.0,-99.9,30.19,SSE,159,-999.0,-999.0,-999,-99.99,,,-99.99,,2013-01-03 11:23:00,
2013-01-03 06:34:00,17.0,-99.9,30.19,SSE,159,-999.0,-999.0,-999,-99.99,,,-99.99,,2013-01-03 11:34:00,
2013-01-03 06:43:00,17.0,-99.9,30.19,SSE,159,-999.0,-999.0,-999,-99.99,,,-99.99,,2013-01-03 11:43:00,
2013-01-03 06:53:00,16.0,-99.9,30.19,SSE,159,-999.0,-999.0,-999,-99.99,,,-99.99,,2013-01-03 11:53:00,
2013-01-03 07:23:00,16.0,-99.9,30.19,SSE,159,-999.0,-999.0,-999,-99.99,,,-99.99,,2013-01-03 12:23:00,
2013-01-03 07:33:00,16.0,-99.9,30.19,SSE,159,-999.0,-999.0,-999,-99.99,,,-99.99,,2013-01-03 12:33:00,
2013-01-03 07:43:00,16.0,-99.9,30.19,SSE,159,-999.0,-999.0,-999,-99.99,,,-99.99,,2013-01-03 12:43:00,
2013-01-03 07:53:00,15.0,-99.9,30.19,SSE,159,-999.0,-999.0,-999,-99.99,,,-99.99,,2013-01-03 12:53:00,
2013-01-03 08:22:00,15.0,-99.9,30.19,SSE,159,-999.0,-999.0,-999,-99.99,,,-99.99,,2013-01-03 13:22:00,
2013-01-03 08:33:00,15.0,-99.9,30.19,SSE,159,-999.0,-999.0,-999,-99.99,,,-99.99,,2013-01-03 13:33:00,
2013-01-03 08:43:00,15.0,-99.9,30.19,SSE,159,-999.0,-999.0,-999,-99.99,,,-99.99,,2013-01-03 13:43:00,
2013-01-03 08:53:00,18.0,-99.9,30.19,SSE,159,-999.0,-999.0,-999,-99.99,,,-99.99,,2013-01-03 13:53:00,
2013-01-03 09:23:00,18.0,-99.9,30.19,SSE,159,-999.0,-999.0,-999,-99.99,,,-99.99,,2013-01-03 14:23:00,
2013-01-03 09:33:00,18.0,-99.9,30.19,SSE,159,-999.0,-999.0,-999,-99.99,,,-99.99,,2013-01-03 14:33:00,
2013-01-03 09:43:00,18.0,-99.9,30.19,SSE,159,-999.0,-999.0,-999,-99.99,,,-99.99,,2013-01-03 14:43:00,
2013-01-03 09:53:00,25.0,-99.9,30.21,WSW,240,-999.0,-999.0,-999,-99.99,,,-99.99,,2013-01-03 14:53:00,
2013-01-03 10:23:00,25.0,-99.9,30.21,WSW,240,-999.0,-999.0,-999,-99.99,,,-99.99,,2013-01-03 15:23:00,
2013-01-03 10:34:00,25.0,-99.9,30.21,WSW,240,-999.0,-999.0,-999,-99.99,,,-99.99,,2013-01-03 15:34:00,
2013-01-03 10:43:00,25.0,-99.9,30.21,WSW,240,-999.0,-999.0,-999,-99.99,,,-99.99,,2013-01-03 15:43:00,
2013-01-03 10:53:00,29.0,-99.9,30.18,South,190,-999.0,-999.0,-999,-99.99,,,-99.99,,2013-01-03 15:53:00,
2013-01-03 11:23:00,29.0,-99.9,30.18,South,190,-999.0,-999.0,-999,-99.99,,,-99.99,,2013-01-03 16:23:00,
2013-01-03 11:34:00,29.0,-99.9,30.18,South,190,-999.0,-999.0,-999,-99.99,,,-99.99,,2013-01-03 16:34:00,
2013-01-03 11:43:00,29.0,-99.9,30.18,South,190,-999.0,-999.0,-999,-99.99,,,-99.99,,2013-01-03 16:43:00,
2013-01-03 11:53:00,30.0,-99.9,30.15,SW,215,-999.0,9.0,-999,-99.99,,,-99.99,,2013-01-03 16:53:00,
2013-01-03 12:23:00,30.0,-99.9,30.15,SW,215,-999.0,9.0,-999,-99.99,,,-99.99,,2013-01-03 17:23:00,
2013-01-03 12:33:00,30.0,-99.9,30.15,SW,215,-999.0,9.0,-999,-99.99,,,-99.99,,2013-01-03 17:33:00,
2013-01-03 12:43:00,30.0,-99.9,30.15,SW,215,-999.0,9.0,-999,-99.99,,,-99.99,,2013-01-03 17:43:00,
2013-01-03 12:53:00,31.0,-99.9,30.11,ENE,72,-999.0,-999.0,-999,-99.99,,,-99.99,,2013-01-03 17:53:00,
2013-01-03 13:23:00,31.0,-99.9,30.11,ENE,72,-999.0,-999.0,-999,-99.99,,,-99.99,,2013-01-03 18:23:00,
2013-01-03 13:33:00,31.0,-99.9,30.11,ENE,72,-999.0,-999.0,-999,-99.99,,,-99.99,,2013-01-03 18:33:00,
2013-01-03 13:43:00,31.0,-99.9,30.11,ENE,72,-999.0,-999.0,-999,-99.99,,,-99.99,,2013-01-03 18:43:00,
2013-01-03 13:53:00,33.0,-99.9,30.09,SW,222,-999.0,5.0,-999,-99.99,,,-99.99,,2013-01-03 18:53:00,
2013-01-03 14:53:00,31.0,-99.9,30.08,SE,136,-999.0,7.0,-999,-99.99,,,-99.99,,2013-01-03 19:53:00,
2013-01-03 15:33:00,31.0,-99.9,30.08,SE,136,-999.0,7.0,-999,-99.99,,,-99.99,,2013-01-03 20:33:00,
2013-01-03 15:43:00,31.0,-99.9,30.08,SE,136,-999.0,7.0,-999,-99.99,,,-99.99,,2013-01-03 20:43:00,
2013-01-03 15:53:00,29.0,-99.9,30.09,SW,218,-999.0,-999.0,-999,-99.99,,,-99.99,,2013-01-03 20:53:00,
2013-01-03 16:23:00,29.0,-99.9,30.09,SW,218,-999.0,-999.0,-999,-99.99,,,-99.99,,2013-01-03 21:23:00,
2013-01-03 16:38:00,29.0,-99.9,30.09,SW,218,-999.0,-999.0,-999,-99.99,,,-99.99,,2013-01-03 21:38:00,
2013-01-03 16:51:00,29.0,-99.9,30.09,SW,218,-999.0,-999.0,-999,-99.99,,,-99.99,,2013-01-03 21:51:00,
2013-01-03 16:53:00,26.0,-99.9,30.09,West,269,-999.0,-999.0,-999,-99.99,,,-99.99,,2013-01-03 21:53:00,
2013-01-03 17:23:00,26.0,-99.9,30.09,West,269,-999.0,-999.0,-999,-99.99,,,-99.99,,2013-01-03 22:23:00,
2013-01-03 17:33:00,26.0,-99.9,30.09,West,269,-999.0,-999.0,-999,-99.99,,,-99.99,,2013-01-03 22:33:00,
2013-01-03 17:43:00,26.0,-99.9,30.09,West,269,-999.0,-999.0,-999,-99.99,,,-99.99,,2013-01-03 22:43:00,
2013-01-03 17:53:00,25.0,-99.9,30.10,West,269,-999.0,-999.0,-999,-99.99,,,-99.99,,2013-01-03 22:53:00,
2013-01-03 18:23:00,25.0,-99.9,30.10,West,269,-999.0,-999.0,-999,-99.99,,,-99.99,,2013-01-03 23:23:00,
2013-01-03 18:33:00,25.0,-99.9,30.10,West,269,-999.0,-999.0,-999,-99.99,,,-99.99,,2013-01-03 23:33:00,
2013-01-03 18:43:00,25.0,-99.9,30.10,West,269,-999.0,-999.0,-999,-99.99,,,-99.99,,2013-01-03 23:43:00,
2013-01-03 18:53:00,27.0,-99.9,30.10,SW,232,-999.0,-999.0,-999,-99.99,,,-99.99,,2013-01-03 23:53:00,
2013-01-03 19:23:00,27.0,-99.9,30.10,SW,232,-999.0,-999.0,-999,-99.99,,,-99.99,,2013-01-04 00:23:00,
2013-01-03 19:33:00,27.0,-99.9,30.10,SW,232,-999.0,-999.0,-999,-99.99,,,-99.99,,2013-01-04 00:33:00,
2013-01-03 19:43:00,27.0,-99.9,30.10,SW,232,-999.0,-999.0,-999,-99.99,,,-99.99,,2013-01-04 00:43:00,
2013-01-03 19:53:00,27.0,-99.9,30.11,SW,232,-999.0,-999.0,-999,-99.99,,,-99.99,,2013-01-04 00:53:00,
2013-01-03 20:22:00,27.0,-99.9,30.11,SW,232,-999.0,-999.0,-999,-99.99,,,-99.99,,2013-01-04 01:22:00,
2013-01-03 20:33:00,27.0,-99.9,30.11,SW,232,-999.0,-999.0,-999,-99.99,,,-99.99,,2013-01-04 01:33:00,
2013-01-03 20:43:00,27.0,-99.9,30.11,SW,232,-999.0,-999.0,-999,-99.99,,,-99.99,,2013-01-04 01:43:00,
2013-01-03 20:53:00,27.0,-99.9,30.09,SW,219,-999.0,-999.0,-999,-99.99,,,-99.99,,2013-01-04 01:53:00,
2013-01-03 21:23:00,27.0,-99.9,30.09,SW,219,-999.0,-999.0,-999,-99.99,,,-99.99,,2013-01-04 02:23:00,
2013-01-03 21:33:00,27.0,-99.9,30.09,SW,219,-999.0,-999.0,-999,-99.99,,,-99.99,,2013-01-04 02:33:00,
2013-01-03 21:43:00,27.0,-99.9,30.09,SW,219,-999.0,-999.0,-999,-99.99,,,-99.99,,2013-01-04 02:43:00,
2013-01-03 21:53:00,27.0,-99.9,30.09,SW,219,-999.0,-999.0,-999,-99.99,,,-99.99,,2013-01-04 02:53:00,
2013-01-03 22:23:00,27.0,-99.9,30.09,SW,219,-999.0,-999.0,-999,-99.99,,,-99.99,,2013-01-04 03:23:00,
2013-01-03 22:33:00,27.0,-99.9,30.09,SW,219,-999.0,-999.0,-999,-99.99,,,-99.99,,2013-01-04 03:33:00,
2013-01-03 22:43:00,27.0,-99.9,30.09,SW,219,-999.0,-999.0,-999,-99.99,,,-99.99,,2013-01-04 03:43:00,
2013-01-03 22:53:00,29.0,-99.9,30.09,SE,127,-999.0,6.0,-999,-99.99,,,-99.99,,2013-01-04 03:53:00,
2013-01-03 23:22:00,29.0,-99.9,30.09,SE,127,-999.0,6.0,-999,-99.99,,,-99.99,,2013-01-04 04:22:00,
2013-01-03 23:33:00,29.0,-99.9,30.09,SE,127,-999.0,6.0,-999,-99.99,,,-99.99,,2013-01-04 04:33:00,
2013-01-03 23:42:00,29.0,-99.9,30.09,SE,127,-999.0,6.0,-999,-99.99,,,-99.99,,2013-01-04 04:42:00,
2013-01-03 23:53:00,26.0,-99.9,30.08,ESE,119,-999.0,-999.0,-999,-99.99,,,-99.99,,2013-01-04 04:53:00,